Temperature
22 22 22 22 20 18 19 22 25 26 27 27 27 26 25 24 23 22 22 22 23 22 22 22 22 22 22 22 21 21 21 21 21 20 20 20 20 20 20 20 20 19 19 19 19 19 19 19 19
22 22 22 22 18 18 19 22 25 26 27 27 26 25 24 23 22 21 22 22 23 22 22 22 21 21 21 21 21 21 21 21 20 20 20 20 20 20 20 20 19 19 19 19 19 19 19 19 19
22 22 22 18 19 19 21 24 26 27 28 27 25 24 23 22 22 22 22 22 22 22 22 21 21 21 21 21 21 21 20 20 20 20 20 20 20 20 19 19 19 19 19 19 19 19 19 19 19
22 22 21 18 20 20 22 24 26 27 27 26 24 23 22 22 23 22 22 22 22 22 21 21 21 21 21 21 20 20 20 20 20 20 20 19 19 19 19 19 19 19 19 19 19 19 19 19 18
22 22 19 18 20 22 24 25 27 26 26 25 24 22 21 22 23 22 22 22 22 22 21 21 21 21 21 20 20 20 20 20 19 19 19 19 19 19 19 19 19 19 19 19 19 19 19 19 18
21 19 18 18 20 23 24 26 26 26 25 24 23 21 20 21 22 22 22 22 22 21 21 21 21 20 20 20 20 20 19 19 19 19 19 19 19 19 19 19 19 19 19 19 18 18 18 18 18
21 18 19 20 21 22 25 26 26 25 24 23 23 21 20 20 21 21 21 21 21 21 21 20 20 20 20 20 20 19 19 19 19 19 19 19 19 19 19 19 18 18 18 18 18 18 18 18 18
22 18 20 20 22 22 24 25 25 24 23 23 23 21 20 20 21 21 20 20 20 20 20 20 20 20 20 20 20 19 19 19 19 19 19 19 19 19 18 18 18 18 18 18 18 18 18 18 18
23 18 18 20 22 22 24 24 24 23 23 22 22 21 20 20 20 20 20 20 20 20 20 20 20 20 20 19 19 19 19 19 19 19 19 18 18 18 18 18 18 18 18 18 18 18 18 18 18
22 18 20 22 23 22 23 23 23 23 22 21 20 20 20 19 19 19 19 19 19 19 19 20 20 20 19 19 19 19 19 19 19 19 18 18 18 18 18 18 18 18 18 18 18 18 18 18 18
21 20 21 23 24 24 23 23 23 22 20 20 19 19 19 19 19 19 19 19 19 19 19 19 19 19 19 19 19 19 19 18 18 18 18 18 18 18 18 17 17 18 18 18 18 18 17 17 17
22 22 23 24 25 24 23 23 22 21 20 20 20 20 19 19 18 19 19 18 18 18 19 19 19 19 19 19 18 18 18 18 18 18 18 18 18 17 17 17 17 17 17 17 17 17 17 17 17
22 22 24 24 24 24 23 22 21 20 20 20 19 19 19 19 18 18 18 18 18 18 18 18 18 18 18 18 18 18 18 18 18 18 18 18 17 17 17 17 17 17 17 17 17 17 17 17 17
23 23 24 24 24 24 22 21 20 19 20 19 19 19 19 19 18 18 18 18 18 18 18 18 18 18 18 17 17 17 17 17 17 17 17 17 17 17 17 17 17 17 17 17 17 17 17 17 17
25 23 22 22 23 23 23 21 20 20 19 19 18 18 18 18 18 18 18 17 17 17 17 17 17 17 17 17 17 17 17 17 17 17 17 17 17 17 17 17 17 16 16 16 16 16 17 17 16
23 22 21 22 22 23 22 20 19 20 19 18 18 17 17 17 17 17 17 17 16 17 17 17 17 17 17 17 17 17 17 17 16 16 16 16 16 16 16 16 16 16 16 16 16 16 16 16 16
21 21 21 22 22 22 21 19 19 19 19 18 17 16 16 16 16 16 16 16 16 16 16 17 17 16 16 16 16 16 16 16 16 16 16 16 16 16 16 16 16 16 16 16 16 16 16 16 16
20 21 22 21 22 22 20 19 19 19 18 18 17 16 16 16 16 16 16 16 16 16 16 16 16 16 16 16 16 16 15 15 15 15 15 15 15 15 15 15 15 15 15 15 15 15 15 15 16
21 21 21 22 22 21 20 19 19 18 18 17 16 16 15 15 15 15 15 15 15 15 15 15 15 15 15 15 15 15 15 15 15 15 15 15 15 15 15 15 15 15 15 15 15 15 15 15 15
22 21 21 22 22 21 20 19 18 18 17 17 16 16 15 14 14 14 15 15 15 15 15 15 15 15 15 15 15 15 14 14 14 14 14 14 14 14 14 14 14 14 15 15 15 15 15 15 15
22 22 22 22 22 21 20 18 18 17 17 17 16 15 15 14 14 14 14 14 14 14 14 14 14 14 14 14 14 14 14 14 13 13 13 13 13 13 14 14 14 14 14 14 14 14 14 14 14
22 23 23 22 20 18 19 17 17 16 16 16 15 15 14 14 14 14 14 13 13 13 13 13 13 13 14 14 14 14 13 13 13 13 13 13 13 13 13 13 13 13 13 13 13 13 13 13 14
23 23 22 21 19 17 17 17 16 16 16 15 15 15 14 14 14 13 13 13 13 12 13 13 13 13 13 13 13 13 13 12 12 12 12 12 12 12 12 13 13 13 13 13 13 13 13 13 13
23 21 20 17 16 17 17 17 16 15 16 15 15 14 13 13 13 13 12 13 12 12 12 12 12 12 12 12 12 12 12 12 12 12 12 12 12 12 12 12 12 12 12 12 12 12 12 12 12
21 18 17 17 16 16 17 16 15 16 16 16 14 14 13 13 12 12 12 12 12 11 11 11 11 11 11 11 11 11 11 11 11 11 11 11 11 11 11 11 11 11 11 11 11 12 12 12 12
21 19 17 17 17 16 16 16 15 16 15 15 14 13 12 12 12 12 12 12 11 11 10 10 10 10 11 11 10 10 10 10 10 10 10 10 10 10 10 10 11 11 11 11 11 11 11 11 11
21 18 17 16 16 16 16 15 15 15 15 14 13 12 12 12 12 11 11 11 11 10 10 10 10 10 10 10 10 10 10 10 10 10 10 10 9 9 9 10 10 10 10 10 10 11 11 11 11
20 19 16 16 16 16 16 15 15 15 14 14 13 12 12 11 11 11 11 11 10 10 9 9 9 9 9 9 9 9 9 9 9 9 9 9 9 9 9 9 9 9 10 10 10 10 10 10 11
19 19 17 15 15 15 15 15 16 15 14 13 13 12 11 11 11 11 10 10 10 9 9 9 9 9 9 9 9 8 8 8 8 8 8 8 8 8 8 8 9 9 9 9 9 9 10 10 10
19 18 17 16 16 15 15 15 16 15 14 13 13 12 12 11 11 10 10 10 9 9 9 9 9 9 8 8 8 8 8 8 8 8 8 8 8 8 8 8 8 8 8 9 9 9 9 9 9
Wind_Speed
6 6 1 4 5 4 5 7 5 5 1 3 9 12 11 8 5 6 3 13 17 15 16 19 20 20 20 20 19 19 18 18 18 18 18 18 17 17 16 16 15 13 12 12 11 11 11 11 12
3 2 3 5 4 1 7 7 6 6 4 8 11 12 10 8 8 9 7 14 17 15 15 17 20 20 20 20 19 18 18 17 17 17 16 16 16 15 14 14 13 12 11 11 10 10 9 9 10
3 0 4 4 3 6 7 5 2 2 5 7 6 7 6 5 6 6 9 17 15 13 15 18 20 19 19 19 18 18 17 17 16 16 15 15 14 13 13 12 12 11 10 10 9 9 8 8 8
2 4 4 2 7 8 8 10 6 1 4 7 10 7 4 4 4 10 16 17 16 12 14 17 19 19 19 18 17 17 17 16 15 15 14 14 13 12 11 11 11 10 9 9 9 8 7 6 6
4 4 3 3 7 8 9 11 7 2 2 7 12 8 5 6 12 18 17 16 15 12 12 16 18 18 18 17 17 17 16 15 15 14 13 13 12 11 10 10 10 9 9 8 8 7 6 5 5
4 4 3 4 8 9 7 6 3 3 7 8 10 9 4 5 12 14 15 13 13 12 11 14 16 17 17 16 16 15 15 14 14 13 13 12 12 11 10 9 9 9 8 8 7 7 6 5 4
4 3 3 5 7 9 8 5 2 5 7 5 6 8 5 6 10 13 13 13 12 11 10 10 12 14 14 14 15 14 14 13 13 12 12 11 11 10 10 9 8 8 8 8 7 6 6 5 4
6 3 3 4 5 8 6 2 2 6 6 5 5 8 7 7 11 14 14 13 11 10 8 8 9 11 11 12 13 13 12 12 12 11 11 10 10 9 9 9 9 8 8 7 7 7 6 6 5
4 3 4 5 4 6 5 3 4 7 9 7 7 8 11 13 15 16 14 11 9 9 7 6 6 8 9 10 10 11 11 10 10 9 9 8 7 7 8 8 9 8 8 7 7 7 7 6 6
5 4 8 6 3 3 4 3 2 7 10 10 11 13 17 16 15 16 13 10 9 7 5 5 5 6 7 7 8 8 8 8 7 7 7 6 5 5 6 8 9 9 8 7 8 8 7 7 5
6 7 7 7 5 3 1 4 4 9 7 10 16 17 17 17 15 14 12 10 8 6 4 4 4 6 5 5 6 5 5 6 6 6 5 5 4 4 4 4 6 7 6 6 6 6 6 6 5
5 8 7 6 3 1 2 3 6 7 8 12 18 19 17 16 13 12 12 9 7 5 3 4 3 3 5 6 4 4 4 4 3 4 5 5 3 2 3 3 4 5 5 5 5 4 5 6 6
7 9 6 4 1 3 7 7 8 8 12 16 18 18 17 15 12 12 11 10 7 4 3 4 4 3 4 4 2 4 3 4 4 4 4 4 3 2 2 2 4 6 6 5 4 3 3 3 4
7 5 3 1 1 2 8 5 7 7 13 16 17 16 14 14 13 12 11 9 7 4 3 4 5 3 4 3 2 3 3 2 2 2 3 3 3 2 2 1 3 4 6 6 6 5 4 3 3
3 1 2 2 1 2 7 6 4 9 13 16 16 15 15 13 12 12 11 10 6 4 4 5 4 4 4 3 2 3 4 3 2 2 3 3 2 2 2 1 2 3 4 5 5 4 3 3 3
3 3 1 5 2 3 7 3 4 9 14 15 14 15 14 11 10 10 11 10 8 6 5 5 4 5 3 3 2 2 4 4 2 2 3 3 3 2 1 1 1 2 2 2 2 2 3 3 3
5 1 3 7 3 3 6 6 6 8 14 14 13 13 14 12 10 9 10 10 9 6 4 5 5 4 3 3 3 3 4 4 2 3 3 3 4 2 1 0 1 1 1 1 2 2 2 2 2
4 3 4 6 4 4 6 7 8 8 13 14 13 13 13 12 10 9 10 10 9 7 7 7 6 4 3 3 3 3 4 3 4 3 4 5 5 4 2 1 2 1 0 1 1 1 1 2 2
5 6 7 7 4 4 8 10 10 9 12 13 12 12 12 12 10 10 10 9 9 8 8 7 6 5 3 2 2 2 2 2 3 3 5 5 5 4 3 2 2 2 1 1 1 1 1 1 1
6 5 5 4 0 5 7 7 6 6 10 12 14 13 14 12 11 10 9 9 8 7 7 7 6 5 5 2 1 2 2 2 3 4 6 6 5 5 3 3 2 2 1 1 1 1 0 1 1
4 4 4 2 3 6 8 4 4 4 8 10 11 12 13 13 12 11 10 9 8 7 7 6 6 6 5 5 3 3 3 3 3 4 4 6 7 6 5 4 3 2 2 1 2 1 1 2 2
4 4 3 3 5 2 4 3 2 5 6 8 9 10 11 11 11 10 10 9 8 7 6 6 6 6 6 5 5 5 4 3 3 2 3 5 8 7 7 5 4 3 2 2 2 2 1 1 2
4 3 5 4 5 4 5 4 2 3 6 8 10 11 11 11 11 10 9 8 8 7 6 5 6 6 6 6 6 5 5 3 3 3 4 5 5 7 7 7 5 4 3 3 3 2 2 1 2
5 6 7 7 6 3 2 3 2 2 6 9 11 11 11 10 11 10 9 8 7 7 6 6 6 6 6 7 7 6 6 5 5 5 4 4 3 4 6 7 6 5 4 4 3 2 2 2 1
7 7 5 6 5 2 2 3 2 3 4 10 12 12 11 11 11 10 9 8 7 7 6 5 6 6 6 7 7 6 6 6 6 4 4 4 4 4 5 5 5 5 5 5 4 3 3 2 2
1 7 7 4 3 2 2 1 2 1 3 9 12 13 12 11 10 9 8 8 7 7 6 5 6 6 6 6 6 6 6 5 4 4 4 4 3 3 4 5 6 6 6 6 5 3 3 2 2
2 2 6 7 3 1 0 0 1 3 6 11 13 13 12 11 11 9 8 8 7 6 5 5 6 6 5 5 5 6 6 5 4 4 4 4 4 4 6 6 6 6 6 6 5 4 4 3 3
4 5 6 5 4 1 1 3 4 5 7 9 11 12 11 11 11 10 8 8 7 5 5 5 5 5 4 5 4 5 5 4 4 4 5 5 5 5 5 6 6 6 7 6 5 5 5 5 4
5 5 5 4 5 5 2 5 5 10 10 11 12 12 12 12 11 10 8 7 6 6 5 5 4 4 4 5 5 5 5 4 5 5 5 5 5 5 6 5 6 6 7 6 6 6 6 6 6
4 2 4 3 1 4 4 5 3 6 8 10 12 12 11 11 11 10 9 7 6 5 5 4 4 4 4 4 4 5 5 5 5 5 5 5 5 6 6 6 7 7 7 7 7 7 7 7 7
Wind_Direction
296 288 91 52 50 41 261 252 250 291 351 65 90 93 94 91 119 137 134 135 134 140 143 141 138 135 132 128 125 122 120 118 116 114 113 112 111 111 111 111 111 112 114 114 114 114 113 113 114
304 297 59 60 87 306 270 259 253 246 158 108 82 84 81 76 85 108 119 134 134 135 137 139 138 136 134 132 130 128 127 124 122 121 119 119 117 116 116 116 116 116 118 119 118 118 118 118 118
289 41 83 81 155 200 249 274 244 165 138 113 87 65 81 104 107 115 131 133 127 128 132 139 138 136 136 136 135 134 132 131 130 128 127 126 125 123 123 123 123 124 125 126 126 126 128 126 123
45 48 53 80 251 240 245 275 277 140 66 82 100 73 65 56 113 125 129 129 124 123 130 138 137 137 138 139 139 138 138 137 136 136 135 134 134 133 133 134 133 134 135 134 134 135 136 135 134
65 77 56 296 265 262 260 265 256 214 115 96 101 100 64 39 102 121 126 125 123 122 126 136 137 137 138 140 142 143 144 144 143 143 143 142 143 143 143 144 144 145 146 144 143 146 150 151 152
53 73 100 261 270 280 284 259 222 139 118 106 102 105 78 100 109 119 120 118 120 122 120 130 134 134 135 138 141 144 146 148 148 150 151 151 151 152 153 154 155 155 155 155 155 161 166 170 174
119 111 206 249 284 297 290 281 184 127 101 96 115 104 114 114 115 111 106 104 106 110 110 114 127 131 133 135 139 142 146 149 151 154 158 159 159 163 165 165 165 166 166 167 169 174 181 188 194
152 101 285 279 282 285 292 323 80 95 94 97 97 118 136 141 118 105 99 96 99 101 104 102 114 124 129 135 139 143 148 151 153 158 161 164 167 172 176 176 177 180 181 183 184 187 195 204 214
120 78 262 254 258 280 313 39 46 73 90 79 77 99 111 118 110 103 99 95 98 104 103 105 106 116 129 135 142 144 148 151 153 158 164 164 168 177 186 189 189 192 195 198 200 202 206 214 227
125 178 237 228 233 276 327 39 93 96 84 86 86 88 101 99 101 104 105 107 112 115 112 111 110 116 123 135 132 139 144 146 149 156 159 158 165 182 194 200 201 201 205 210 212 214 215 218 230
178 207 241 267 245 212 19 27 47 116 101 127 125 116 110 105 103 104 101 99 99 104 117 122 117 114 115 112 127 134 139 142 143 146 157 164 165 185 202 202 213 214 214 225 231 228 224 222 229
236 254 242 262 253 113 96 78 62 82 125 126 122 122 117 114 112 107 101 97 98 96 106 118 117 109 107 113 125 135 129 139 157 173 178 166 158 178 188 194 207 207 213 223 229 228 231 235 243
240 257 263 238 23 93 87 83 91 90 112 113 115 115 117 117 111 107 111 110 105 91 92 88 89 88 91 104 130 127 129 151 177 184 180 164 160 177 175 194 212 214 213 214 214 217 225 233 240
237 235 239 208 108 84 96 80 84 113 121 115 114 116 119 119 121 114 111 110 109 104 74 77 82 94 106 118 127 121 122 129 150 163 128 127 149 167 158 217 225 228 223 214 211 212 214 226 224
240 237 319 285 167 180 98 54 103 144 123 117 119 120 118 115 116 120 119 111 102 95 82 87 93 86 103 111 111 111 109 103 102 109 105 108 113 140 158 220 230 235 227 210 206 207 197 219 228
1 51 320 278 203 212 112 134 161 149 124 120 122 121 114 109 109 108 106 100 89 71 60 62 73 79 87 107 106 95 100 103 87 91 89 86 80 97 136 216 236 238 219 203 210 207 207 220 221
15 8 266 288 257 172 126 161 181 156 131 131 130 125 118 113 103 99 100 97 95 86 65 52 58 70 99 106 94 91 84 84 87 80 70 55 60 72 85 293 292 257 212 232 233 198 194 210 224
257 264 264 253 257 141 134 156 158 151 138 139 138 131 125 121 113 104 95 91 87 77 61 51 54 48 62 80 80 77 66 58 62 56 55 54 50 50 46 30 7 20 359 284 271 216 197 207 221
238 262 266 258 235 135 142 149 159 151 143 144 139 136 129 122 114 105 96 90 82 68 62 45 41 28 39 56 64 72 68 60 55 53 52 51 47 45 49 27 12 18 14 295 301 256 206 227 188
245 259 267 285 170 130 131 130 145 153 151 147 144 139 134 128 120 109 99 88 78 66 62 46 43 39 34 35 36 69 80 71 67 50 40 36 34 35 48 43 18 8 4 2 357 344 230 234 180
261 219 229 205 63 65 107 66 116 127 113 126 132 131 133 133 124 113 102 91 83 69 58 59 42 38 33 30 48 61 53 45 46 42 30 23 31 34 39 42 33 13 15 349 330 334 247 240 234
259 247 159 114 100 36 96 143 186 145 122 135 136 134 132 125 117 112 107 98 89 81 69 58 48 43 35 39 58 70 74 66 43 40 34 22 30 32 35 37 33 20 13 356 330 350 295 253 248
211 141 109 100 106 74 30 113 244 131 147 160 153 144 136 131 126 116 109 103 94 84 72 59 54 49 41 42 49 60 59 55 49 46 39 27 20 26 30 32 30 18 7 354 338 337 325 285 242
120 76 54 53 69 65 301 119 236 210 187 165 151 140 133 127 119 114 107 100 89 76 64 55 55 49 43 47 47 55 58 56 56 47 36 23 15 13 20 28 23 17 7 358 347 343 335 319 294
73 84 39 15 23 273 290 100 243 253 176 157 148 139 132 120 116 116 109 103 95 83 72 62 62 54 44 48 44 44 51 55 54 44 40 30 20 13 4 15 13 9 6 7 7 5 358 342 328
98 126 147 177 202 275 7 103 266 338 112 131 133 130 129 122 118 118 115 109 103 95 85 71 64 55 50 51 46 42 45 49 46 42 43 34 21 7 1 13 16 16 15 13 14 13 1 4 6
82 90 152 131 125 97 345 271 294 87 101 126 131 129 131 130 125 120 114 106 103 98 86 77 73 61 55 55 54 45 42 46 44 38 34 28 15 14 20 23 21 18 18 17 19 22 7 15 29
113 135 84 99 133 170 291 239 223 191 170 147 141 140 135 130 125 120 113 108 102 100 94 84 82 75 59 50 49 56 42 40 39 39 34 28 17 21 24 21 22 22 21 21 25 23 15 29 27
28 43 87 110 139 145 208 257 228 196 180 166 157 148 139 136 128 123 119 112 108 103 98 91 86 76 62 54 51 47 36 31 34 36 31 30 25 25 27 24 27 30 27 23 28 27 29 36 34
102 106 116 123 198 148 167 257 292 176 160 155 146 141 137 133 129 128 124 118 112 108 104 99 91 83 74 64 57 48 36 36 36 35 27 28 28 27 32 34 35 36 32 27 33 34 32 37 38
Height
1520 1521 1522 1523 1526 1536 1535 1519 1506 1499 1497 1496 1495 1497 1503 1509 1516 1525 1522 1524 1527 1529 1532 1535 1538 1540 1542 1544 1546 1548 1549 1551 1552 1554 1555 1556 1557 1558 1560 1561 1562 1563 1564 1564 1565 1566 1567 1567 1568
1519 1521 1523 1523 1533 1545 1535 1513 1505 1498 1497 1496 1498 1501 1505 1512 1514 1517 1520 1525 1528 1531 1533 1536 1539 1541 1543 1545 1547 1549 1551 1552 1554 1555 1556 1558 1559 1560 1561 1562 1563 1564 1565 1565 1566 1567 1568 1568 1569
1519 1520 1522 1525 1534 1539 1526 1507 1501 1496 1496 1496 1500 1504 1508 1514 1516 1518 1521 1525 1529 1532 1535 1537 1540 1542 1544 1546 1548 1550 1552 1554 1555 1557 1558 1559 1560 1561 1562 1563 1563 1564 1565 1566 1566 1567 1568 1569 1569
1519 1521 1522 1529 1531 1522 1513 1504 1500 1498 1497 1498 1500 1509 1513 1517 1517 1519 1523 1526 1529 1533 1536 1538 1541 1543 1545 1547 1549 1551 1553 1555 1556 1557 1559 1560 1561 1562 1562 1563 1564 1565 1565 1566 1567 1567 1568 1569 1570
1519 1520 1526 1532 1526 1513 1505 1500 1499 1498 1499 1501 1501 1511 1516 1519 1519 1522 1525 1528 1531 1534 1537 1540 1542 1544 1546 1548 1550 1552 1554 1555 1557 1558 1559 1560 1561 1562 1563 1563 1564 1565 1566 1566 1567 1568 1568 1569 1570
1520 1521 1534 1536 1524 1510 1502 1499 1497 1498 1501 1503 1505 1512 1519 1521 1522 1524 1527 1530 1533 1536 1538 1541 1543 1545 1547 1549 1551 1552 1554 1556 1557 1558 1560 1561 1561 1562 1563 1564 1564 1565 1566 1566 1567 1567 1568 1569 1570
1520 1524 1530 1526 1521 1512 1501 1498 1497 1498 1500 1504 1507 1513 1521 1523 1524 1526 1529 1531 1535 1538 1540 1542 1544 1546 1547 1549 1551 1553 1554 1556 1557 1558 1559 1561 1561 1562 1563 1563 1564 1565 1565 1566 1567 1567 1568 1569 1569
1518 1522 1525 1524 1520 1514 1500 1499 1499 1499 1503 1506 1508 1513 1520 1523 1525 1527 1530 1532 1536 1539 1542 1544 1545 1547 1548 1550 1551 1553 1554 1556 1557 1558 1559 1560 1561 1562 1563 1563 1564 1564 1565 1566 1566 1567 1567 1568 1568
1517 1526 1530 1522 1517 1510 1501 1500 1501 1502 1503 1507 1510 1514 1519 1524 1526 1528 1531 1534 1539 1541 1543 1545 1546 1548 1549 1550 1552 1553 1554 1556 1557 1558 1559 1560 1560 1561 1562 1563 1563 1563 1564 1565 1565 1566 1566 1567 1567
1515 1527 1520 1511 1508 1507 1503 1501 1502 1505 1506 1510 1513 1517 1520 1525 1527 1529 1532 1535 1539 1543 1545 1546 1547 1549 1550 1551 1552 1553 1554 1555 1556 1557 1558 1559 1559 1560 1561 1562 1562 1563 1563 1564 1564 1565 1565 1565 1566
1512 1515 1509 1506 1505 1505 1503 1503 1503 1504 1510 1512 1514 1518 1521 1525 1528 1530 1533 1536 1540 1543 1546 1547 1548 1549 1550 1551 1552 1553 1554 1555 1555 1556 1557 1557 1558 1558 1559 1560 1561 1561 1561 1562 1563 1563 1563 1564 1565
1509 1506 1505 1504 1503 1503 1503 1504 1507 1506 1511 1513 1515 1517 1522 1526 1530 1531 1534 1537 1540 1543 1544 1546 1547 1549 1550 1551 1552 1552 1553 1554 1554 1555 1555 1556 1556 1557 1557 1558 1558 1559 1559 1559 1560 1561 1561 1562 1563
1507 1504 1503 1503 1502 1503 1503 1506 1509 1512 1513 1515 1517 1520 1523 1527 1532 1533 1536 1537 1540 1542 1543 1545 1546 1548 1549 1550 1551 1551 1552 1553 1552 1552 1553 1554 1554 1555 1555 1555 1556 1557 1557 1557 1558 1559 1559 1559 1560
1501 1501 1502 1502 1502 1503 1505 1509 1511 1517 1516 1517 1519 1523 1525 1528 1531 1534 1536 1538 1540 1542 1544 1545 1545 1546 1548 1549 1550 1550 1550 1551 1551 1551 1551 1551 1551 1552 1552 1553 1553 1554 1554 1554 1555 1555 1556 1557 1557
1499 1501 1503 1502 1501 1504 1505 1514 1515 1518 1518 1518 1521 1524 1527 1530 1532 1534 1535 1537 1540 1541 1544 1545 1546 1546 1547 1548 1549 1549 1549 1549 1549 1549 1549 1549 1549 1550 1550 1550 1550 1550 1551 1551 1552 1552 1552 1553 1553
1499 1505 1511 1504 1501 1502 1508 1523 1518 1518 1518 1521 1524 1526 1529 1531 1534 1534 1535 1537 1540 1542 1543 1544 1545 1545 1546 1546 1548 1548 1548 1548 1547 1547 1547 1547 1547 1547 1547 1547 1548 1548 1548 1548 1548 1549 1549 1549 1549
1509 1516 1514 1507 1499 1501 1508 1520 1518 1519 1519 1523 1526 1527 1529 1532 1535 1536 1538 1539 1540 1542 1543 1544 1544 1545 1545 1546 1546 1546 1546 1546 1546 1545 1545 1545 1545 1545 1545 1545 1545 1545 1545 1545 1545 1545 1546 1546 1546
1518 1515 1512 1510 1500 1501 1509 1516 1517 1519 1520 1523 1527 1529 1531 1533 1535 1537 1539 1541 1542 1543 1542 1543 1544 1545 1545 1546 1545 1545 1545 1545 1544 1544 1543 1543 1543 1543 1543 1542 1542 1542 1542 1542 1542 1541 1542 1542 1542
1508 1511 1512 1505 1498 1503 1511 1516 1518 1519 1521 1524 1528 1530 1532 1535 1537 1538 1540 1542 1542 1542 1542 1542 1542 1543 1544 1544 1544 1543 1543 1543 1543 1542 1542 1541 1541 1540 1540 1540 1540 1539 1539 1539 1538 1538 1538 1538 1539
1505 1510 1509 1503 1497 1503 1513 1519 1520 1521 1522 1524 1528 1531 1532 1535 1537 1539 1540 1542 1543 1543 1542 1542 1542 1543 1543 1542 1542 1542 1542 1541 1541 1541 1540 1540 1539 1539 1538 1538 1537 1537 1536 1536 1535 1535 1535 1535 1536
1502 1506 1505 1504 1502 1504 1513 1527 1525 1525 1526 1528 1529 1531 1533 1535 1537 1539 1541 1542 1543 1543 1544 1543 1543 1543 1543 1542 1542 1541 1541 1540 1540 1539 1539 1538 1538 1537 1536 1535 1535 1534 1533 1533 1532 1532 1532 1532 1532
1505 1495 1496 1500 1511 1523 1519 1539 1533 1528 1529 1530 1532 1533 1535 1536 1538 1540 1541 1543 1544 1545 1545 1544 1544 1544 1543 1543 1542 1541 1539 1539 1538 1538 1538 1537 1536 1535 1534 1533 1532 1531 1530 1530 1529 1528 1528 1528 1528
1495 1491 1496 1501 1513 1526 1527 1536 1539 1531 1532 1532 1532 1534 1536 1538 1539 1541 1543 1544 1545 1545 1545 1545 1545 1544 1543 1542 1542 1540 1539 1539 1538 1538 1537 1536 1535 1534 1533 1531 1530 1529 1528 1526 1526 1525 1524 1524 1525
1489 1496 1503 1512 1522 1539 1534 1537 1541 1534 1530 1530 1532 1535 1537 1539 1540 1542 1543 1545 1546 1546 1546 1546 1545 1544 1543 1542 1542 1541 1539 1538 1538 1537 1536 1535 1534 1533 1531 1530 1528 1527 1525 1524 1523 1522 1521 1521 1521
1494 1512 1531 1536 1545 1544 1532 1536 1538 1528 1525 1527 1531 1535 1539 1540 1541 1542 1544 1545 1546 1546 1547 1547 1546 1545 1544 1543 1542 1541 1540 1539 1537 1536 1535 1534 1533 1531 1530 1528 1527 1525 1523 1522 1521 1519 1519 1518 1519
1499 1509 1532 1543 1547 1545 1535 1538 1534 1526 1525 1527 1530 1534 1537 1540 1542 1544 1546 1546 1547 1547 1547 1547 1546 1545 1544 1543 1542 1541 1540 1539 1537 1536 1535 1533 1532 1531 1529 1528 1526 1524 1523 1521 1520 1518 1517 1517 1517
1502 1510 1513 1529 1536 1545 1542 1537 1531 1527 1528 1529 1532 1535 1537 1540 1542 1544 1546 1547 1548 1549 1548 1548 1547 1546 1545 1544 1543 1541 1540 1539 1538 1536 1535 1533 1531 1530 1529 1528 1526 1524 1523 1521 1519 1518 1517 1516 1515
1498 1504 1518 1530 1543 1548 1543 1540 1536 1529 1529 1530 1533 1535 1537 1540 1542 1544 1546 1548 1549 1549 1549 1549 1548 1547 1546 1545 1543 1542 1541 1539 1538 1536 1534 1533 1532 1531 1529 1528 1526 1524 1523 1521 1519 1518 1516 1515 1514
1504 1508 1517 1528 1533 1545 1550 1543 1521 1521 1523 1527 1530 1533 1535 1539 1541 1544 1547 1548 1549 1550 1550 1550 1549 1548 1547 1546 1544 1543 1542 1540 1538 1536 1535 1534 1533 1531 1530 1528 1527 1525 1523 1521 1520 1518 1517 1515 1514
1503 1509 1516 1529 1532 1535 1542 1540 1517 1517 1520 1524 1528 1532 1535 1538 1541 1544 1546 1548 1550 1550 1550 1550 1550 1549 1548 1547 1545 1544 1542 1541 1539 1538 1536 1535 1534 1533 1531 1530 1528 1526 1524 1523 1521 1519 1518 1516 1515